| time (UTC) | temp F | wind direction | speed MPH | gust MPH | rain 1hr in | rain 24hr in | rain mn in | humidity % | barometer mb |
| 20260505083146 | 58 | 7 | 0.0 | 0.0 | 0.00 | 0.00 | 0.00 | 42 | 1005.6 |
| 20260505081539 | 57 | 12 | 0.0 | 0.0 | 0.00 | 0.00 | 0.00 | 44 | 1006.0 |
| 20260505080038 | 57 | 266 | 0.0 | 0.0 | 0.00 | 0.00 | 0.00 | 46 | 1005.5 |
| 20260505074642 | 57 | 266 | 0.0 | 0.0 | 0.00 | 0.00 | 0.00 | 47 | 1006.0 |
| 20260505073111 | 57 | 265 | 0.0 | 0.0 | 0.00 | 0.00 | 0.00 | 48 | 1006.3 |
| 20260505071600 | 58 | 122 | 0.0 | 0.0 | 0.00 | 0.00 | 0.00 | 46 | 1006.1 |
| 20260505070052 | 58 | 122 | 0.0 | 0.0 | 0.00 | 0.00 | 0.00 | 44 | 1006.0 |
| 20260505064547 | 58 | 122 | 0.0 | 0.0 | 0.00 | 0.00 | 0.00 | 42 | 1006.1 |
| 20260505063153 | 59 | 122 | 0.0 | 0.0 | 0.00 | 0.00 | 0.00 | 42 | 1006.0 |
| 20260505061550 | 59 | 122 | 0.0 | 0.0 | 0.00 | 0.00 | 0.00 | 42 | 1006.2 |
| 20260505060022 | 59 | 122 | 0.0 | 0.0 | 0.00 | 0.00 | 0.00 | 41 | 1006.1 |
| 20260505054535 | 60 | 122 | 0.0 | 0.0 | 0.00 | 0.00 | 0.00 | 40 | 1006.0 |
| 20260505053046 | 60 | 122 | 0.0 | 0.0 | 0.00 | 0.00 | 0.00 | 39 | 1006.1 |
| 20260505051520 | 60 | 98 | 0.0 | 0.0 | 0.00 | 0.00 | 0.00 | 39 | 1006.4 |
| 20260505041522 | 62 | 117 | 0.0 | 3.0 | 0.00 | 0.00 | 0.00 | 36 | 1005.9 |
| 20260505040021 | 62 | 120 | 0.0 | 2.0 | 0.00 | 0.00 | 0.00 | 36 | 1005.5 |
| 20260505034515 | 62 | 110 | 0.0 | 2.0 | 0.00 | 0.00 | 0.00 | 35 | 1005.8 |
| 20260505031548 | 63 | 103 | 0.0 | 2.0 | 0.00 | 0.00 | 0.00 | 32 | 1005.2 |
| 20260505030033 | 64 | 108 | 0.0 | 1.0 | 0.00 | 0.00 | 0.00 | 31 | 1004.9 |
| 20260505024535 | 65 | 111 | 0.0 | 6.0 | 0.00 | 0.00 | 0.00 | 30 | 1004.7 |
| 20260505021642 | 69 | 37 | 0.0 | 0.0 | 0.00 | 0.00 | 0.00 | 29 | 1004.0 |
| 20260505020034 | 69 | 40 | 0.0 | 0.0 | 0.00 | 0.00 | 0.00 | 28 | 1003.8 |
| 20260505014528 | 70 | 32 | 0.0 | 8.0 | 0.00 | 0.00 | 0.00 | 28 | 1004.0 |
| 20260505013019 | 71 | 32 | 4.0 | 10.0 | 0.00 | 0.00 | 0.00 | 27 | 1004.1 |
| 20260505011530 | 72 | 44 | 4.0 | 10.0 | 0.00 | 0.00 | 0.00 | 27 | 1003.9 |
| 20260505004537 | 71 | 1 | 3.0 | 12.0 | 0.00 | 0.00 | 0.00 | 24 | 1004.1 |
| 20260505003016 | 71 | 37 | 5.0 | 13.0 | 0.00 | 0.00 | 0.00 | 23 | 1004.4 |
| 20260505001517 | 72 | 67 | 6.0 | 15.0 | 0.00 | 0.00 | 0.00 | 23 | 1004.2 |
| 20260504234521 | 72 | 30 | 8.0 | 14.0 | 0.00 | 0.00 | 0.00 | 20 | 1004.4 |
| 20260504233030 | 73 | 43 | 4.0 | 11.0 | 0.00 | 0.00 | 0.00 | 22 | 1004.3 |
| 20260504231518 | 73 | 36 | 6.0 | 12.0 | 0.00 | 0.00 | 0.00 | 22 | 1004.3 |
| 20260504224545 | 73 | 19 | 6.0 | 18.0 | 0.00 | 0.00 | 0.00 | 20 | 1004.1 |
| 20260504223043 | 73 | 42 | 8.0 | 16.0 | 0.00 | 0.00 | 0.00 | 19 | 1004.2 |
| 20260504221558 | 73 | 25 | 7.0 | 14.0 | 0.00 | 0.00 | 0.00 | 20 | 1004.0 |
| 20260504220047 | 73 | 23 | 8.0 | 15.0 | 0.00 | 0.00 | 0.00 | 19 | 1004.5 |
| 20260504214655 | 74 | 32 | 8.0 | 19.0 | 0.00 | 0.00 | 0.00 | 20 | 1004.6 |
| 20260504213147 | 74 | 13 | 9.0 | 20.0 | 0.00 | 0.00 | 0.00 | 20 | 1004.6 |
| 20260504211507 | 74 | 39 | 10.0 | 16.0 | 0.00 | 0.00 | 0.00 | 21 | 1004.6 |
| 20260504210007 | 74 | 358 | 2.0 | 12.0 | 0.00 | 0.00 | 0.00 | 23 | 1004.9 |
| 20260504204504 | 73 | 352 | 2.0 | 10.0 | 0.00 | 0.00 | 0.00 | 23 | 1005.3 |
| 20260504203005 | 73 | 1 | 2.0 | 11.0 | 0.00 | 0.00 | 0.00 | 22 | 1005.4 |
| 20260504201601 | 73 | 17 | 4.0 | 12.0 | 0.00 | 0.00 | 0.00 | 21 | 1005.4 |
| 20260504200058 | 73 | 59 | 3.0 | 13.0 | 0.00 | 0.00 | 0.00 | 22 | 1005.8 |
| 20260504194615 | 72 | 15 | 5.0 | 17.0 | 0.00 | 0.00 | 0.00 | 21 | 1005.8 |
| 20260504191608 | 73 | 46 | 4.0 | 15.0 | 0.00 | 0.00 | 0.00 | 19 | 1005.9 |
| 20260504190117 | 74 | 39 | 6.0 | 14.0 | 0.00 | 0.00 | 0.00 | 21 | 1005.9 |
| 20260504184554 | 73 | 341 | 2.0 | 14.0 | 0.00 | 0.00 | 0.00 | 28 | 1006.1 |
| 20260504183050 | 73 | 345 | 4.0 | 9.0 | 0.00 | 0.00 | 0.00 | 29 | 1006.2 |
| 20260504181602 | 71 | 330 | 6.0 | 10.0 | 0.00 | 0.00 | 0.00 | 30 | 1006.2 |
| 20260504181510 | 71 | 316 | 6.0 | 10.0 | 0.00 | 0.00 | 0.00 | 30 | 1006.2 |
| 20260504180111 | 70 | 30 | 0.0 | 5.0 | 0.00 | 0.00 | 0.00 | 32 | 1006.4 |
| 20260504174555 | 71 | 34 | 0.0 | 6.0 | 0.00 | 0.00 | 0.00 | 33 | 1006.6 |
| 20260504173151 | 70 | 347 | 0.0 | 6.0 | 0.00 | 0.00 | 0.00 | 36 | 1006.4 |
| 20260504171522 | 68 | 67 | 0.0 | 8.0 | 0.00 | 0.00 | 0.00 | 38 | 1006.4 |